Home   Weather   Tianjin   Past weeks

Flag for China Past Weather in Tianjin, Tianjin Municipality, China — Yesterday and Last 2 Weeks

Now
34 °F

Clear.


Feels Like: 34 °F
Forecast: 24 / 54 °F
Wind: 1 mph from North

Location: Tianjin / Zhangguizhu

Current Time: Mar 2, 2017 at 2:12:30 am

Latest Report: Mar 2, 2017 at 1:30 am


Visibility: 10 mi

Pressure: 30.27 "Hg

Humidity: 25%

Dew Point: 1 °F

Location of TianjinLocation

Past Weather in Tianjin — Graph

°F

Tianjin Temperature Yesterday

Maximum temperature yesterday: 46 °F (at 12:00 pm)
Minimum temperature yesterday: 34 °F (at 8:30 am)
Average temperature yesterday: 41 °F

High & Low Weather Summary for the Past Weeks

 TemperatureHumidityPressure
High61 °F (Feb 27, 1:30 pm)100% (Feb 21, 10:00 pm)30.57 "Hg (Feb 21, 10:00 pm)
Low19 °F (Feb 22, 6:00 am)10% (Feb 17, 1:30 pm)29.68 "Hg (Feb 19, 6:30 am)
Average39 °F44%30.22 "Hg
* Reported Feb 15 1:00 am — Mar 2 1:00 am, Tianjin, Weather by CustomWeather, © 2017

Note: Actual official high and low records may vary slightly from our data, if they occured in-between our weather recording intervals... More about our weather records

Advertising

Tianjin Weather History for the Previous 24 Hours

Scroll right to see more
 ConditionsComfort  
Time TempWeatherWind HumidityBarometerVisibility
1:00 am
Thu, Mar 2
34 °FClear.3 mph25%30.30 "Hg10 mi
12:30 am32 °FClear.6 mph25%30.30 "Hg10 mi
11:30 pm
Wed, Mar 1
34 °FClear.15 mph25%30.30 "Hg10 mi
11:00 pm34 °FClear.10 mph25%30.33 "Hg10 mi
10:30 pm36 °FClear.13 mph23%30.33 "Hg10 mi
10:00 pm36 °FClear.15 mph21%30.33 "Hg10 mi
9:30 pm34 °FClear.10 mph23%30.33 "Hg10 mi
9:00 pm37 °FClear.13 mph18%30.33 "Hg10 mi
8:30 pm39 °FClear.13 mph17%30.30 "Hg10 mi
8:00 pm37 °FClear.13 mph20%30.30 "Hg10 mi
7:30 pm36 °FClear.8 mph20%30.30 "Hg10 mi
7:00 pm36 °FClear.8 mph18%30.30 "Hg10 mi
6:30 pm37 °FClear.13 mph17%30.27 "Hg10 mi
6:00 pm41 °FSunny.13 mph13%30.27 "Hg10 mi
5:30 pm43 °FSunny.15 mph12%30.27 "Hg10 mi
5:00 pm45 °FSunny.17 mph12%30.27 "Hg10 mi
4:30 pm45 °FSunny.17 mph12%30.27 "Hg10 mi
4:00 pm46 °FSunny.17 mph11%30.24 "Hg10 mi
3:30 pm46 °FSunny.20 mph11%30.24 "Hg10 mi
3:00 pm46 °FSunny.24 mph11%30.24 "Hg10 mi
2:30 pm46 °FSunny.26 mph11%30.24 "Hg10 mi
2:00 pm45 °FSunny.29 mph10%30.24 "Hg10 mi
1:30 pm46 °FSunny.26 mph11%30.24 "Hg10 mi
1:00 pm46 °FSunny.31 mph11%30.24 "Hg10 mi
12:30 pm46 °FSunny.26 mph13%30.24 "Hg10 mi
12:00 pm46 °FSunny.24 mph14%30.24 "Hg10 mi
11:30 am45 °FSunny.24 mph18%30.24 "Hg10 mi
11:00 am45 °FSunny.24 mph21%30.24 "Hg10 mi
10:30 am43 °FPassing clouds.13 mph46%30.24 "HgN/A
10:00 am39 °FPassing clouds.8 mph81%30.24 "HgN/A
9:30 am37 °FSunny.10 mph87%30.24 "Hg10 mi
9:00 am36 °FLight rain. Mostly cloudy.13 mph93%30.24 "HgN/A
8:30 am34 °FLight rain. Fog.20 mph93%30.24 "Hg1 mi
8:00 am36 °FLight rain. Fog.15 mph87%30.24 "Hg3 mi
7:30 am41 °FSunny.8 mph45%30.21 "Hg10 mi
7:00 am41 °FPassing clouds.13 mph45%30.18 "HgN/A
6:30 am39 °FClear.15 mph48%30.15 "Hg10 mi
6:00 am39 °FClear.13 mph52%30.12 "Hg5 mi
5:30 am41 °FClear.17 mph49%30.12 "Hg5 mi
5:00 am41 °FHaze.15 mph53%30.09 "Hg3 mi
4:30 am41 °FHaze.15 mph57%30.07 "Hg3 mi
4:00 am41 °FClear.13 mph61%30.04 "Hg4 mi
3:30 am43 °FClear.13 mph46%30.04 "Hg4 mi
3:00 am39 °FClear.6 mph42%30.04 "Hg4 mi
2:30 am41 °FClear.1 mph42%30.04 "Hg4 mi
2:00 am43 °FHaze.3 mph39%30.04 "Hg3 mi
Weather by CustomWeather, © 2017

See weather overviewHow to use our weather pages